Regional Weather Roundup
Issued by NWS

Home | Current Version | Previous Version | Text Only | Print | Product List | Glossary On
Versions: 1 2 3 4 5 6 7 8 9 10 11 12 13 14 15 16 17 18 19 20 21 22 23 24 25 26 27 28 29 30 31 32 33 34 35 36 37 38 39 40 41 42 43 44 45 46 47 48 49 50
000
ASUS43 KMKX 150110
RWRWI

WISCONSIN REGIONAL WEATHER ROUNDUP
NATIONAL WEATHER SERVICE MILWAUKEE/SULLIVAN WI
700 PM CST THU DEC 14 2017

NOTE: "FAIR" INDICATES FEW OR NO CLOUDS BELOW 12,000 FEET WITH NO
SIGNIFICANT WEATHER AND/OR OBSTRUCTIONS TO VISIBILITY.

WIZ001-002-006>008-014>016-023>028-150200-
NORTHWEST WISCONSIN

CITY           SKY/WX    TMP DP  RH WIND       PRES   REMARKS
SUPERIOR ARPT  CLOUDY    19  13  76 W8        29.97F WCI   9
ASHLAND        CLOUDY    17  12  80 SW8       29.95F WCI   7
HAYWARD        LGT SNOW  17  13  84 W3        29.94F FOG
SIREN          CLOUDY    19  13  78 W5        29.98F WCI  12
CUMBERLAND     CLOUDY    19  12  73 W9        29.96S WCI   9
RICE LAKE      FLURRIES  19  15  84 W5        29.98S WCI  13
CHETEK         CLOUDY    19  15  83 W7        29.97F WCI  10
LADYSMITH      FLURRIES  19  15  84 W6        29.96F WCI  11
EAU CLAIRE     FLURRIES  21  16  81 W12       29.98F WCI   9
MENOMONIE      CLOUDY    22  16  77 W9G17     30.00S WCI  12
NEW RICHMOND   CLOUDY    20  15  79 NW7       30.00S WCI  11
OSCEOLA        FLURRIES  21  15  78 W6        30.03S WCI  14
$$

WIZ003>005-009-010-017-018-150200-
NORTH CENTRAL WISCONSIN

CITY           SKY/WX    TMP DP  RH WIND       PRES   REMARKS
MANITOWISH WTR LGT SNOW  15  15 100 SW3       29.88S
ARBOR VITAE    LGT SNOW  18  15  90 CALM      29.88S
WOODRUFF       LGT SNOW  18  15  90 CALM      29.88S
RHINELANDER    CLOUDY    18  15  88 W10       29.89F WCI   6
EAGLE RIVER    LGT SNOW  15  11  85 CALM      29.87F
LAND O LAKES   LGT SNOW  15  12  88 CALM      29.89S
PHILLIPS       LGT SNOW  16  14  90 W3        29.90F
TOMAHAWK       LGT SNOW  17  14  85 W3        29.91F
MEDFORD        LGT SNOW  18  15  88 W6        29.92S WCI  10
MERRILL        FLURRIES  19  16  89 SW5       29.94S WCI  12
$$

WIZ029-030-035-036-043>047-150200-
CENTRAL WISCONSIN

CITY           SKY/WX    TMP DP  RH WIND       PRES   REMARKS
WAUSAU         FLURRIES  19  15  84 SW6       29.94S WCI  11
MOSINEE        CLOUDY    19  16  86 SW5       29.96S WCI  13
MARSHFIELD     LGT SNOW  20  15  81 SW6       29.94F WCI  12
STEVENS POINT  CLOUDY    19  13  77 SW6       29.98S WCI  11
WAUPACA        CLOUDY    23  16  73 CALM      30.00S
WAUTOMA        CLOUDY    21  13  71 SW3       30.01S
WISC RAPIDS    CLOUDY    22  11  62 SW7       29.99S WCI  13
CAMP DOUGLAS   CLOUDY    23  12  63 SW3       30.00S
$$

WIZ011>013-019>022-031-037>040-048>050-150200-
NORTHEAST WISCONSIN

CITY           SKY/WX    TMP DP  RH WIND       PRES   REMARKS
ANTIGO         LGT SNOW  17  15  92 SW7       29.92S WCI   7
SHAWANO        CLOUDY    23  17  77 SW3       29.98S
OCONTO         CLOUDY    21  15  79 SW5       29.99S WCI  14
STURGEON BAY   FLURRIES  19  16  88 SW6       29.99S WCI  11
GREEN BAY      CLOUDY    21  13  71 SW3       30.00S
MANITOWOC      FLURRIES  18  11  74 SW8       30.03R WCI   8
APPLETON       CLOUDY    21  10  63 SW6       29.98S WCI  14
CLINTONVILLE   CLOUDY    19  16  86 SW3       29.99S
OSHKOSH        CLOUDY    21  14  74 S7        30.00S WCI  12
$$

WIZ032>034-041-042-053>061-150200-
SOUTHWEST WISCONSIN

CITY           SKY/WX    TMP DP  RH WIND       PRES   REMARKS
LA CROSSE      CLOUDY    26  17  68 W9        30.02R WCI  17
SPARTA         CLOUDY    24  15  68 CALM      30.01S
VIROQUA        CLOUDY    24  18  79 SW8       29.98S WCI  14
BOSCOBEL       CLOUDY    26  15  63 SW3       30.04S
PRAIRIE DU CHI CLOUDY    27  15  59 W9        30.04S WCI  18
PLATTEVILLE    CLOUDY    25  17  71 SW9       30.03S WCI  16
$$

WIZ056-057-062-063-064-067-068-150200-
SOUTH CENTRAL WISCONSIN

CITY           SKY/WX    TMP DP  RH WIND       PRES   REMARKS
REEDSBURG      CLOUDY    22  13  67 S3        30.00F
BARABOO/DELLS  CLOUDY    22  13  67 S3        30.00F
LONE ROCK      CLOUDY    25  15  66 SW5       30.03F WCI  19
MINERAL POINT  CLOUDY    27  18  69 SW6       30.00F WCI  20
MADISON        CLOUDY    23  12  62 CALM      30.03S
MIDDLETON      CLOUDY    25  14  64 S3        30.02F
WATERTOWN      CLOUDY    19  14  81 CALM      30.03S
MONROE         CLOUDY    21  10  63 SW7       30.02S WCI  13
JANESVILLE     PTCLDY    19  10  68 W6        30.04F WCI  11
$$

WIZ051-052-058>065-066-070>072-150200-
SOUTHEAST WISCONSIN

CITY           SKY/WX    TMP DP  RH WIND       PRES   REMARKS
MILWAUKEE      PTCLDY    21  11  65 CALM      30.05F
WAUKESHA       CLOUDY    18   9  68 S3        30.05S
MILWAUKEE/TIMM MOCLDY    14   9  79 CALM      30.06S
RACINE         CLEAR     14   8  77 CALM      30.07F
BURLINGTON     CLEAR     11   9  88 SW3       30.05F
KENOSHA        PTCLDY    17   7  64 CALM      30.05F
FOND DU LAC    CLOUDY    21  12  68 S7        30.01F WCI  12
SHEBOYGAN      CLOUDY    13   9  84 S3        30.03R
WEST BEND      CLOUDY    12   9  85 CALM      30.03S
JUNEAU         CLOUDY    19  11  73 S3        30.03S
$$

LSZ147-162-150200-
LAKE SUPERIOR

STATION/POSITION TIME  TEMP    WIND        PRES    WAVE
                       AIR SEA DIR/SP/G            HT/PER
                 (UTC) (F)     (DEG/KT/KT) (MB)    (FT/S)
DEVILS ISLAND    0100   22     270/ 17/ 22 1014.3F
SAXON HARBOR     0030   19                 1013.9F
$$

LMZ867-665-643>646-150200-
LAKE MICHIGAN

STATION/POSITION TIME  TEMP    WIND        PRES    WAVE
                       AIR SEA DIR/SP/G            HT/PER
                 (UTC) (F)     (DEG/KT/KT) (MB)    (FT/S)
NORTHPORT PIER   0040   22      CALM  / 15 1014.9F
KEWAUNEE LAKESHO 0042   19     260/  3/  5 1015.4S
SHEBOYGAN LAKESH 0100   19     230/  9/ 11 1018.3R
PORT WASHINGTON  0040   18     260/  4/  6 1018.6R
MILWAUKEE LAKESH 0050   23     270/  6/  8   N/A
KENOSHA   LAKESH 0100   22     280/  3/  4 1017.9
$$

TC  - TEMPERATURE IN CELSIUS
VSB - VISIBILITY IN STATUTE MILES
WCI - WIND CHILL INDEX
HX  - HEAT INDEX





USA.gov is the U.S. government's official web portal to all federal, state and local government web resources and services.